This demonstration page uses our WeatherBlox Daily Observations layout. Learn more.

Left ArrowRight Arrow

39.92423, -83.80882

Hourly Observations for February 28, 2021

Temp ( °F °C ) Dew Point ( °F °C ) Humidity (%) Winds ( mph kmh ) Pressure ( in mb ) Visibility ( mi km ) Precip ( " mm )
12:56 am 00:56 Cloudy 44 6.7 43 6.1 96 96 ESE 12 19 30.08 1019 10 16 0.00 0.00
1:56 am 01:56 Cloudy with Light Rain 44 6.7 44 6.7 100 100 ESE 12 19 30.06 1018 10 16 0.00 0.00
2:04 am 02:04 Cloudy 45 7 45 7 100 100 ESE 14 22 30.05 1018 10 16 0.00 0.00
2:34 am 02:34 Cloudy with Light Rain 45 7 45 7 100 100 E 9 15 30.05 1018 10 16 0.00 0.00
2:56 am 02:56 Cloudy with Light Rain 44 6.7 44 6.7 100 100 ESE 10 17 30.02 1017 8 13 0.00 0.00
3:56 am 03:56 Cloudy with Light Rain 45 7.2 45 7.2 100 100 SE 9 15 29.99 1016 10 16 0.00 0.00
4:04 am 04:04 Cloudy with Light Rain 46 8 46 8 100 100 SSE 6 9 30.01 1016 10 16 0.00 0.00
4:56 am 04:56 Cloudy with Light Rain 46 7.8 46 7.8 100 100 SSE 12 19 29.97 1015 7 11 0.00 0.00
5:05 am 05:05 Cloudy with Rain 46 8 46 8 100 100 SSE 14 22 29.96 1015 7 11 0.00 0.00
5:56 am 05:56 Cloudy with Rain 49 9.4 49 9.4 100 100 SSW 7 11 29.96 1015 7 11 0.00 0.00
6:46 am 06:46 Cloudy with Light Rain 50 10 50 10 100 100 Calm 29.96 1015 7 11 0.00 0.00
6:56 am 06:56 Cloudy with Light Rain 49 9.4 49 9.4 100 100 ESE 3 6 29.96 1014 4 6 0.00 0.00
7:12 am 07:12 Cloudy with Light Rain 48 9 48 9 100 100 E 3 6 29.94 1014 3 4 0.00 0.00
7:21 am 07:21 Cloudy with Light Rain 48 9 48 9 100 100 E 8 13 29.93 1013 1 2 0.00 0.00
7:24 am 07:24 Cloudy with Fog 48 9 48 9 100 100 E 8 13 29.93 1013 1 1 0.00 0.00
7:34 am 07:34 Cloudy with Fog 48 9 48 9 100 100 E 7 11 29.93 1013 0 0 0.00 0.00
7:56 am 07:56 Cloudy with Rain 48 8.9 48 8.9 100 100 E 5 7 29.93 1014 0 0 0.00 0.00
8:21 am 08:21 Cloudy with Rain 48 9 48 9 100 100 ESE 3 6 29.95 1014 0 0 0.00 0.00
8:29 am 08:29 Cloudy with Light Rain 48 9 48 9 100 100 Calm 29.96 1014 1 1 0.00 0.00
8:56 am 08:56 Cloudy with Light Rain 48 8.9 48 8.9 100 100 SE 5 7 29.97 1015 1 1 0.00 0.00
9:06 am 09:06 Cloudy with Rain 48 9 48 9 100 100 ESE 5 7 29.96 1014 1 1 0.00 0.00
9:15 am 09:15 Cloudy with Light Rain 48 9 48 9 100 100 ESE 3 6 29.96 1014 1 1 0.00 0.00
9:32 am 09:32 Cloudy with Light Rain 48 9 48 9 100 100 Calm 29.96 1014 1 2 0.00 0.00
9:39 am 09:39 Cloudy with Rain 48 9 48 9 100 100 E 5 7 29.96 1014 1 2 0.00 0.00
9:49 am 09:49 Cloudy with Rain 48 9 48 9 100 100 ENE 6 9 29.95 1014 1 2 0.00 0.00
9:56 am 09:56 Cloudy with Rain 49 9.4 49 9.4 100 100 ENE 8 13 29.93 1014 1 2 0.00 0.00
10:06 am 10:06 Cloudy with Light Rain 48 9 48 9 100 100 E 3 6 29.94 1014 2 3 0.00 0.00
10:09 am 10:09 Cloudy with Rain 50 10 50 10 100 100 E 3 6 29.93 1014 3 5 0.00 0.00
10:16 am 10:16 Cloudy with Light Rain 50 10 50 10 100 100 E 5 7 29.93 1014 4 6 0.00 0.00
10:34 am 10:34 Cloudy with Light Rain 50 10 50 10 100 100 E 7 11 29.91 1013 5 8 0.00 0.00
10:47 am 10:47 Cloudy with Light Rain 52 11 52 11 100 100 E 6 9 29.91 1013 7 11 0.00 0.00
10:56 am 10:56 Cloudy with Light Rain 51 10.6 51 10.6 100 100 ESE 5 7 29.93 1013 10 16 0.00 0.00
11:03 am 11:03 Cloudy with Light Rain 52 11 52 11 100 100 ESE 7 11 29.91 1013 10 16 0.00 0.00
11:34 am 11:34 Cloudy with Light Rain 52 11 52 11 100 100 SE 10 17 29.88 1012 10 16 0.00 0.00
11:53 am 11:53 Cloudy with Light Rain 52 11 52 11 100 100 SE 9 15 29.88 1012 10 16 0.00 0.00
11:56 am 11:56 Cloudy with Light Rain 52 11.1 52 11.1 100 100 SE 9 15 29.88 1012 10 16 0.00 0.00
12:26 pm 12:26 Cloudy 54 12 54 12 100 100 SE 10 17 29.85 1011 10 16 0.00 0.00
12:56 pm 12:56 Cloudy 54 12.2 54 12.2 100 100 SE 13 20 29.84 1011 10 16 0.00 0.00
1:11 pm 13:11 Cloudy 54 12 54 12 100 100 SE 10 17 29.81 1010 10 16 0.00 0.00
1:56 pm 13:56 Cloudy 55 12.8 55 12.8 100 100 SE 14 22 29.78 1008 10 16 0.00 0.00
2:21 pm 14:21 Cloudy 57 14 57 14 100 100 SSE 15 24 29.75 1007 10 16 0.00 0.00
2:56 pm 14:56 Cloudy 59 15 59 15 100 100 SW 7 11 29.76 1008 10 16 0.00 0.00
3:25 pm 15:25 Cloudy 61 16 59 15 94 94 SW 12 19 29.74 1007 10 16 0.00 0.00
3:56 pm 15:56 Cloudy 59 15 59 15 100 100 SW 12 19 29.76 1008 10 16 0.00 0.00
4:56 pm 16:56 Cloudy 59 15 59 15 100 100 SW 13 20 29.75 1007 10 16 0.00 0.00
5:56 pm 17:56 Cloudy 58 14.4 58 14.4 100 100 WSW 14 22 29.75 1008 10 16 0.00 0.00
6:56 pm 18:56 Cloudy 58 14.4 58 14.4 100 100 WSW 12 19 29.78 1009 10 16 0.00 0.00
7:56 pm 19:56 Cloudy with Light Rain 57 13.9 57 13.9 100 100 SW 8 13 29.80 1009 10 16 0.00 0.00
8:43 pm 20:43 Cloudy with Light Rain 57 14 57 14 100 100 WSW 12 19 29.79 1009 10 16 0.00 0.00
8:56 pm 20:56 Cloudy 56 13.3 56 13.3 100 100 SW 9 15 29.78 1008 10 16 0.00 0.00
9:56 pm 21:56 Cloudy with Rain 56 13.3 56 13.3 100 100 WSW 13 20 29.80 1009 7 11 0.00 0.00
10:20 pm 22:20 Cloudy with Light Rain 55 13 55 13 100 100 WSW 12 19 29.80 1009 7 11 0.00 0.00
10:56 pm 22:56 Cloudy with Light Rain 54 12.2 54 12.2 100 100 WNW 22 35 29.81 1010 10 16 0.00 0.00
11:04 pm 23:04 Cloudy with Light Rain 52 11 52 11 100 100 WNW 16 26 29.81 1009 10 16 0.00 0.00
11:56 pm 23:56 Cloudy with Light Rain 49 9.4 46 7.8 90 90 WNW 14 22 29.82 1010 10 16 0.00 0.00

Powered by AerisWeather